Hourly Data Report for September 27, 2017

All times are specified in Local Standard Time (LST). Add 1 hour to adjust for Daylight Saving Time where and when it is observed.

ENNADAI LAKE (AUT)
NUNAVUT

61°07'55.000" N
100°53'02.000" W
353.10 m
2301102
71923
WJC

Download Data

Hourly Data (September 2017)
Hourly Data Report for September 27, 2017
Temp Definition
°C
Dew Point Temp Definition
°C
Rel Hum Definition
%
Wind Dir Definition
10's deg

Wind Spd Definition
km/h
Visibility Definition
km
Stn Press Definition
kPa
Hmdx Definition


Wind Chill Definition


Weather Definition


TIME
00:00 7.2 7.1 99 2 8   96.50     LegendNANA
01:00 7.1 7.0 99 1 13   96.52     LegendNANA
02:00 7.0 6.8 99 36 13   96.55     LegendNANA
03:00 6.8 6.7 99 36 16   96.59     LegendNANA
04:00 6.5 6.4 99 1 17   96.64     LegendNANA
05:00 6.6 6.5 99 36 19   96.70     LegendNANA
06:00 6.6 6.5 99 35 21   96.73     LegendNANA
07:00 6.7 6.6 99 35 20   96.76     LegendNANA
08:00 6.8 6.7 99 33 28   96.81     LegendNANA
09:00 6.9 6.8 99 33 28   96.87     LegendNANA
10:00 7.5 7.2 98 33 30   96.91     LegendNANA
11:00 8.2 7.3 94 34 35   96.98     LegendNANA
12:00 7.2 6.6 96 34 38   97.05     LegendNANA
13:00 6.1 5.8 98 34 45   97.11     LegendNANA
14:00 6.1 5.3 95 34 44   97.21     LegendNANA
15:00 5.6 4.9 95 35 43   97.32     LegendNANA
16:00 5.4 4.7 96 35 42   97.43     LegendNANA
17:00 5.0 4.0 94 35 45   97.51     LegendNANA
18:00 4.8 3.4 91 35 41   97.60     LegendNANA
19:00 4.3 2.9 90 35 41   97.67     LegendNANA
20:00 3.8 1.4 84 36 38   97.74     LegendNANA
21:00 2.9 1.0 87 36 28   97.82     LegendNANA
22:00 3.2 1.3 88 36 25   97.88     LegendNANA
23:00 2.7 1.1 90 1 31   97.92     LegendNANA

Notes on Data Quality.

Legend

  • E = Estimated
  • M = Missing
  • NA = Not Available
  • ‡ = Partner data that is not subject to review by the National Climate Archives
Date modified: